Location: Unnamed Road
(35.9029°N, 51.9749°E)
Time: 11:30:12
(UTC+04:30)

Altair - Visible Passes

Search period start: 26 May 2020 00:00
Search period end: 05 June 2020 00:00
Orbit: 1501 x 1683 km, 47.2° (Epoch: 25 May)

Date Brightness Start Highest point End Pass type
(mag) Time Alt. Az. Time Alt. Az. Time Alt. Az.
26 May 8.1 01:27:44 10° W 01:37:38 58° NNW 01:47:39 10° ENE visible
26 May 8.6 03:34:43 10° WNW 03:44:19 44° N 03:53:48 10° ENE visible
26 May 8.8 20:59:48 10° SSE 21:04:04 14° ESE 21:08:23 10° E visible
26 May 7.5 22:57:42 10° SSW 23:07:19 59° SE 23:17:12 10° ENE visible
27 May 8.0 01:02:24 10° WSW 01:12:20 60° NNW 01:22:24 10° NE visible
27 May 8.6 03:09:22 10° WNW 03:18:56 44° N 03:28:27 10° ENE visible
27 May 8.2 05:15:22 10° NW 05:25:28 63° NNE 05:35:18 10° ESE visible
27 May 8.9 20:36:13 10° SE 20:39:02 11° ESE 20:41:51 10° ESE visible
27 May 7.6 22:32:42 10° SSW 22:42:10 54° SE 22:51:54 10° ENE visible
28 May 7.9 00:37:06 10° WSW 00:47:02 63° NNW 00:57:09 10° NE visible
28 May 8.6 02:44:00 10° WNW 02:53:34 44° N 03:03:06 10° ENE visible
28 May 8.3 04:50:06 10° NW 05:00:10 60° NNE 05:10:01 10° ESE visible
28 May 7.7 22:07:43 10° SSW 22:17:02 50° SE 22:26:36 10° ENE visible
29 May 7.9 00:11:49 10° WSW 00:21:45 67° NNW 00:31:55 10° NE visible
29 May 8.6 02:18:38 10° WNW 02:28:12 44° N 02:37:46 10° ENE visible
29 May 8.3 04:24:51 10° WNW 04:34:52 58° NNE 04:44:41 10° E visible
29 May 7.8 21:42:47 10° SSW 21:51:54 45° SE 22:01:18 10° ENE visible
29 May 7.8 23:46:32 10° WSW 23:56:29 70° NNW 00:06:40 10° NE visible
30 May 8.6 01:53:17 10° WNW 02:02:50 44° N 02:12:26 10° ENE visible
30 May 8.3 03:59:35 10° WNW 04:09:34 55° NNE 04:19:22 10° E visible
30 May 7.9 21:17:53 10° SSW 21:26:48 41° SE 21:35:57 10° ENE visible
30 May 7.7 23:21:18 10° WSW 23:31:14 74° NNW 23:41:25 10° NE visible
31 May 8.6 01:27:55 10° WNW 01:37:28 45° N 01:47:06 10° ENE visible
31 May 8.4 03:34:19 10° WNW 03:44:15 53° NNE 03:54:01 10° E visible
31 May 8.0 20:53:01 10° SSW 21:01:41 38° SE 21:10:35 10° ENE visible
31 May 7.7 22:56:04 10° WSW 23:05:58 78° NNW 23:16:12 10° NE visible
01 Jun 8.5 01:02:33 10° W 01:12:07 45° N 01:21:46 10° ENE visible
01 Jun 8.4 03:09:03 10° WNW 03:18:55 51° NNE 03:28:40 10° E visible
01 Jun 7.7 05:14:17 10° WNW 05:24:28 79° SW 05:34:23 10° SE visible
01 Jun 8.1 20:28:13 10° S 20:36:35 34° SE 20:45:12 10° ENE visible
01 Jun 7.6 22:30:51 10° WSW 22:40:44 83° NNW 22:50:57 10° NE visible
02 Jun 8.5 00:37:11 10° W 00:46:45 46° N 00:56:27 10° ENE visible
02 Jun 8.4 02:43:46 10° WNW 02:53:35 50° NNE 03:03:19 10° E visible
02 Jun 7.7 04:49:02 10° WNW 04:59:16 84° SW 05:09:14 10° SE visible
02 Jun 7.6 22:05:39 10° SW 22:15:30 87° NW 22:25:43 10° NE visible
03 Jun 8.5 00:11:51 10° W 00:21:24 47° NNW 00:31:09 10° ENE visible
03 Jun 8.5 02:18:29 10° WNW 02:28:14 48° NNE 02:37:56 10° E visible
03 Jun 7.7 04:23:48 10° WNW 04:34:03 89° SW 04:44:04 10° SE visible
03 Jun 7.6 21:40:29 10° SW 21:50:18 88° SE 22:00:28 10° ENE visible
03 Jun 8.4 23:46:29 10° W 23:56:03 48° NNW 00:05:50 10° ENE visible
04 Jun 8.5 01:53:11 10° WNW 02:02:53 47° NNE 02:12:34 10° E visible
04 Jun 7.7 03:58:35 10° NW 04:08:49 86° NNE 04:18:53 10° SE visible
04 Jun 7.6 21:15:21 10° SW 21:25:06 83° SE 21:35:13 10° ENE visible
04 Jun 8.4 23:21:08 10° W 23:30:43 50° NNW 23:40:32 10° ENE visible
